Location: Isles
(48.9125°N, 2.8272°E)
Time: 11:52:47
(UTC+00:00)

Cosmos 1741 Rocket - Pass Details

Date: 03 February 2023
Orbit: 761 x 781 km, 74.0° (Epoch: 25 March)

Event Time Altitude Azimuth Distance (km) Brightness Sun altitude
Rises 18:30:26 0° 181° (S) 3,247 7.3 -16.8°
Reaches altitude 10° 18:32:53 10° 175° (S) 2,326 6.5 -17.2°
Maximum altitude 18:37:52 44° 105° (ESE) 1,081 4.3 -18.1°
Enters shadow 18:40:12 28° 52° (NE) 1,454 5.0 -18.4°
